[[{"header":{"parameterUnit":"m.s-1","parameterCategory":1,"la1":30.2992,"la2":30.254,"lo1":-89.0895,"lo2":-89.0443,"dy":0.0025,"dx":0.0025,"nx":19,"ny":19,"refTime":"2026-04-29T09:00:00:Z","depth":0,"parameterNumber":2,"parameterNumberName":"U-component_of_WINDS"},"data":[0,0,0,-0.0587,-0.0585,-0.0511,-0.051,-0.0434,-0.0433,0,0,0,0,0,0,0,0,0,0,0,-0.0621,-0.0621,-0.0587,-0.0585,-0.0511,-0.051,-0.0434,-0.0433,0,0,0,0,0,0,0,0,0,0,0,-0.0621,-0.0621,-0.0621,-0.0585,-0.0511,-0.051,-0.0434,-0.0483,0,0,0,0,0,0,0,0,0,0,-0.0552,-0.0597,-0.0621,-0.0621,-0.0585,-0.0511,-0.051,-0.0485,-0.048,-0.0476,0,-0.0477,0,-0.0454,-0.043,-0.0429,0,0,0,-0.0576,-0.0601,-0.057,-0.0621,-0.0584,-0.0511,-0.0542,-0.0482,-0.0477,-0.047,-0.0475,-0.0472,-0.0453,-0.0429,-0.0429,-0.0439,-0.044,0,0,-0.058,-0.0614,-0.0574,-0.0567,-0.0581,-0.0544,-0.0539,-0.0479,-0.0487,-0.0475,-0.047,-0.0452,-0.0429,-0.0428,-0.0439,-0.0439,0,0,0,-0.0598,-0.0618,-0.0587,-0.0571,-0.0556,-0.0542,-0.0537,-0.0489,-0.0477,-0.0469,-0.0451,-0.0429,-0.0428,-0.0438,-0.0439,-0.0497,0,0,0,-0.06,-0.0628,-0.059,-0.061,-0.0557,-0.0522,-0.055,-0.0481,-0.0473,-0.0451,-0.0428,-0.0427,-0.0437,-0.0438,-0.0494,-0.0518,0,0,0,-0.0622,-0.063,-0.0624,-0.0612,-0.0581,-0.0522,-0.0505,-0.0478,-0.0462,-0.0429,-0.0427,-0.0437,-0.0438,-0.0491,-0.0514,-0.053,0,0,0,-0.0655,-0.0676,-0.0626,-0.0643,-0.0582,-0.0559,-0.0505,-0.0486,-0.0465,-0.0428,-0.0438,-0.0439,-0.0491,-0.0511,-0.0528,-0.055,-0.0563,0,0,-0.0701,-0.0683,-0.069,-0.0643,-0.0638,-0.0568,-0.057,-0.0518,-0.0483,-0.0455,-0.0455,-0.0495,-0.0513,-0.053,-0.0624,-0.0634,0,0,0,-0.0717,-0.0723,-0.0714,-0.0695,-0.0657,-0.0625,-0.0568,-0.0549,-0.0524,-0.0476,-0.0505,-0.0515,-0.0523,-0.0532,-0.054,-0.0545,-0.0445,-0.0445,-0.0444,-0.0831,-0.0786,-0.0795,-0.0741,-0.0724,-0.0666,-0.0648,-0.0611,-0.057,-0.0578,-0.0569,-0.0632,-0.0644,-0.065,-0.0655,-0.0578,-0.0578,-0.0578,-0.0579,-0.0895,-0.0895,-0.0841,-0.083,-0.0782,-0.0772,-0.0717,-0.0689,-0.0672,-0.0635,-0.0639,-0.0602,-0.0663,-0.0665,-0.0583,-0.0582,-0.0581,-0.0581,-0.0581,-0.0964,-0.0956,-0.0933,-0.0902,-0.0883,-0.0827,-0.0814,-0.0771,-0.073,-0.0735,-0.072,-0.0719,-0.0712,-0.0731,-0.0731,-0.0732,-0.0732,-0.0732,-0.0732,-0.1044,-0.1016,-0.101,-0.0972,-0.0954,-0.0926,-0.0868,-0.0849,-0.0818,-0.0787,-0.0787,-0.0745,-0.0678,-0.0661,-0.0735,-0.0735,-0.0734,-0.0734,-0.0734,-0.1123,-0.1099,-0.109,-0.1073,-0.1023,-0.1007,-0.0953,-0.0919,-0.0897,-0.0892,-0.0849,-0.0807,-0.0785,-0.0778,-0.0764,-0.0859,-0.0859,-0.0859,-0.0859,-0.1181,-0.1166,-0.1148,-0.1123,-0.1093,-0.1043,-0.1034,-0.099,-0.094,-0.0924,-0.0904,-0.0882,-0.0877,-0.0858,-0.0849,-0.0835,-0.0946,-0.0946,-0.0947,-0.1227,-0.1207,-0.1208,-0.116,-0.1118,-0.1083,-0.1073,-0.1046,-0.0984,-0.0949,-0.091,-0.0906,-0.087,-0.0861,-0.0824,-0.0811,-0.0785,0,0]},{"header":{"parameterUnit":"m.s-1","parameterCategory":1,"la1":30.2992,"la2":30.254,"lo1":-89.0895,"lo2":-89.0443,"dy":0.0025,"dx":0.0025,"nx":19,"ny":19,"refTime":"2026-04-29T09:00:00:Z","depth":0,"parameterNumber":3,"parameterNumberName":"V-component_of_WINDS"},"data":[0,0,0,3.9975,3.9978,4.0099,4.01,4.0236,4.0237,0,0,0,0,0,0,0,0,0,0,0,3.993,3.993,3.9975,3.9978,4.0099,4.01,4.0236,4.0237,0,0,0,0,0,0,0,0,0,0,0,3.9929,3.993,3.9931,3.9978,4.0099,4.01,4.0236,4.015,0,0,0,0,0,0,0,0,0,0,4.0035,3.9984,3.993,3.9931,3.9979,4.0099,4.01,4.0146,4.0156,4.0174,0,4.0189,0,4.0215,4.0245,4.0246,0,0,0,3.9984,3.9976,4.0018,3.9931,3.998,4.0099,4.0046,4.0152,4.0162,4.0186,4.0191,4.0196,4.0218,4.0246,4.0247,4.0335,4.0335,0,0,3.9978,3.9946,4.0011,4.0025,4.0007,4.0042,4.005,4.0158,4.0161,4.0191,4.02,4.022,4.0247,4.0248,4.0335,4.0335,0,0,0,3.9954,3.994,3.998,4.0019,4.0042,4.0046,4.0055,4.0156,4.0172,4.0202,4.0221,4.0248,4.0249,4.0335,4.0335,4.031,0,0,0,3.995,3.9927,3.9977,3.9958,4.004,4.0101,4.005,4.0164,4.0178,4.0221,4.0248,4.025,4.0335,4.0335,4.0311,4.0304,0,0,0,3.9925,3.9924,3.9939,3.9956,4.0008,4.01,4.0122,4.0168,4.019,4.0246,4.0251,4.0334,4.0335,4.0311,4.0305,4.0319,0,0,0,3.9888,3.9913,3.9938,3.9974,4.0007,4.0085,4.0122,4.0181,4.0226,4.0248,4.0335,4.0335,4.0312,4.0305,4.0319,4.0325,4.0324,0,0,3.9902,3.9914,3.9938,3.9963,4.0029,4.0069,4.0131,4.0201,4.0234,4.0299,4.0301,4.0311,4.0305,4.0319,4.0333,4.0332,0,0,0,3.9931,3.9948,3.9972,4.0016,4.0072,4.0119,4.0184,4.0211,4.0268,4.0262,4.032,4.0318,4.0327,4.0331,4.0331,4.0341,4.0335,4.0335,4.0335,3.9904,3.9948,3.9991,4.0049,4.009,4.0159,4.0196,4.0242,4.0272,4.0285,4.0305,4.0308,4.0312,4.0312,4.0322,4.0311,4.0311,4.0311,4.0311,3.9929,3.996,4.0002,4.0059,4.0104,4.0151,4.0217,4.0237,4.0287,4.0297,4.0307,4.0314,4.031,4.0321,4.031,4.031,4.031,4.031,4.031,3.9916,3.9939,3.9972,4.0041,4.0088,4.0146,4.0193,4.0232,4.0269,4.0279,4.0304,4.0305,4.0311,4.0289,4.0289,4.0289,4.0289,4.0289,4.0289,3.989,3.9929,3.9965,4.0028,4.0062,4.0111,4.0181,4.0214,4.0262,4.0286,4.0287,4.0315,4.0302,4.0298,4.0289,4.0289,4.0289,4.0289,4.0289,3.9899,3.9904,3.9959,3.9993,4.0072,4.0117,4.0167,4.0232,4.0266,4.0288,4.0315,4.0299,4.0313,4.0313,4.031,4.0305,4.0305,4.0305,4.0305,3.9888,3.99,3.9967,4.0019,4.0074,4.0126,4.0186,4.0241,4.0297,4.0321,4.0327,4.0326,4.0325,4.034,4.034,4.0338,4.034,4.034,4.034,3.9896,3.9916,3.996,4.0018,4.0083,4.0137,4.0196,4.0253,4.0317,4.0342,4.034,4.0338,4.0338,4.0335,4.0359,4.0358,4.0355,0,0]}]]